West Bend, WI

9:29 PM CDT on June 28, 2017 (GMT -0500)
West Bend Municipal

Weather History for KETB - January, 2014

Change the Weather History Date:

Sunday, January 19, 2014

  Actual Average Record
Temperature  
Mean Temperature 21 °F -  
Max Temperature 32 °F 27 °F 47 °F (1933)
Min Temperature 10 °F 8 °F -20 °F (1985)
Degree Days  
Heating Degree Days 44    
Moisture  
Dew Point 17 °F    
Average Humidity 73    
Maximum Humidity 86    
Minimum Humidity 64    
Precipitation  
Precipitation 0.00 in - - ()
Sea Level Pressure  
Sea Level Pressure 29.56 in    
Wind  
Wind Speed 9 mph (WSW)    
Max Wind Speed 16 mph    
Max Gust Speed 25 mph    
Visibility 10 miles    
Events      
Averages and records for this station are not official NWS values.
T = Trace of Precipitation, MM = Missing Value Source: NWS Daily Summary

Daily Weather History Graph

Daily Weather History Graph

Search for Another Location

Airport or City:

Trip Planner

Search our weather history database for the weather conditions in past years. The results will help you decide how hot, cold, wet, or windy it might be!

Date:

Astronomy

Jan. 19, 2014 Rise Set
Actual Time 7:19 AM CST 4:47 PM CST
Civil Twilight 6:48 AM CST 5:18 PM CST
Nautical Twilight 6:13 AM CST 5:53 PM CST
Astronomical Twilight 5:39 AM CST 6:27 PM CST
Moon 8:32 PM CST (1/19) 8:42 AM CST (1/19)
Length of Visible Light 10h 29m
Length of Day
9h 27m
Waning Gibbous, 89% of the Moon is Illuminated
Jan 19
Waning Gibbous
Jan 23
Last Quarter
Jan 30
New
Feb 6
First Quarter
Feb 14
Full

Hourly Weather History & Observations

Time (CST) Temp. Windchill Dew Point Humidity Pressure Visibility Wind Dir Wind Speed Gust Speed Precip Events Conditions
12:15 AM 10.4 °F 4.0 °F 6.8 °F 85% 29.75 in 10.0 mi WSW 3.5 mph - N/A   Clear
12:35 AM 12.2 °F 1.7 °F 8.6 °F 85% 29.75 in 10.0 mi WSW 6.9 mph - N/A   Clear
12:55 AM 12.2 °F 1.7 °F 8.6 °F 85% 29.73 in 10.0 mi WSW 6.9 mph - N/A   Clear
1:15 AM 12.2 °F 1.7 °F 8.6 °F 85% 29.73 in 10.0 mi WSW 6.9 mph - N/A   Clear
1:35 AM 12.2 °F 0.7 °F 8.6 °F 85% 29.72 in 10.0 mi WSW 8.1 mph - N/A   Scattered Clouds
1:55 AM 14.0 °F 6.5 °F 10.4 °F 86% 29.71 in 10.0 mi WSW 4.6 mph - N/A   Mostly Cloudy
2:15 AM 14.0 °F 0.5 °F 10.4 °F 86% 29.72 in 10.0 mi West 11.5 mph - N/A   Mostly Cloudy
2:35 AM 15.8 °F 1.4 °F 10.4 °F 79% 29.72 in 10.0 mi West 13.8 mph 18.4 mph N/A   Overcast
2:55 AM 15.8 °F 2.1 °F 10.4 °F 79% 29.71 in 10.0 mi WSW 12.7 mph 19.6 mph N/A   Overcast
3:15 AM 15.8 °F 2.7 °F 10.4 °F 79% 29.70 in 10.0 mi WSW 11.5 mph - N/A   Overcast
3:35 AM 15.8 °F 4.2 °F 10.4 °F 79% 29.68 in 10.0 mi SW 9.2 mph 17.3 mph N/A   Overcast
3:55 AM 17.6 °F 5.0 °F 12.2 °F 79% 29.67 in 10.0 mi SW 11.5 mph 17.3 mph N/A   Overcast
4:15 AM 17.6 °F 6.4 °F 12.2 °F 79% 29.65 in 10.0 mi SW 9.2 mph - N/A   Overcast
4:35 AM 19.4 °F 7.2 °F 12.2 °F 74% 29.63 in 10.0 mi SW 11.5 mph - N/A   Overcast
4:55 AM 19.4 °F 8.6 °F 12.2 °F 74% 29.61 in 10.0 mi SW 9.2 mph - N/A   Overcast
5:15 AM 19.4 °F 5.0 °F 12.2 °F 74% 29.59 in 10.0 mi SW 16.1 mph 20.7 mph N/A   Mostly Cloudy
5:35 AM 19.4 °F 6.0 °F 12.2 °F 74% 29.60 in 10.0 mi WSW 13.8 mph 24.2 mph N/A   Overcast
5:55 AM 19.4 °F 6.6 °F 12.2 °F 74% 29.59 in 10.0 mi SW 12.7 mph 25.3 mph N/A   Overcast
6:15 AM 19.4 °F 7.9 °F 12.2 °F 74% 29.58 in 10.0 mi SW 10.4 mph - N/A   Mostly Cloudy
6:35 AM 19.4 °F 6.6 °F 12.2 °F 74% 29.57 in 10.0 mi SW 12.7 mph 19.6 mph N/A   Mostly Cloudy
6:55 AM 19.4 °F 6.0 °F 12.2 °F 74% 29.56 in 10.0 mi WSW 13.8 mph 20.7 mph N/A   Scattered Clouds
7:15 AM 19.4 °F 5.0 °F 12.2 °F 74% 29.55 in 10.0 mi SW 16.1 mph 23.0 mph N/A   Clear
7:35 AM 19.4 °F 6.6 °F 12.2 °F 74% 29.55 in 10.0 mi WSW 12.7 mph 23.0 mph N/A   Clear
7:55 AM 19.4 °F 5.5 °F 14.0 °F 80% 29.55 in 10.0 mi SW 15.0 mph 21.9 mph N/A   Scattered Clouds
8:15 AM 19.4 °F 7.2 °F 14.0 °F 80% 29.56 in 10.0 mi SW 11.5 mph 21.9 mph N/A   Mostly Cloudy
8:35 AM 19.4 °F 7.9 °F 14.0 °F 80% 29.56 in 10.0 mi WSW 10.4 mph 23.0 mph N/A   Scattered Clouds
8:55 AM 19.4 °F 6.0 °F 14.0 °F 80% 29.56 in 10.0 mi WSW 13.8 mph 21.9 mph N/A   Scattered Clouds
9:15 AM 21.2 °F 8.3 °F 14.0 °F 74% 29.56 in 10.0 mi WSW 13.8 mph 20.7 mph N/A   Clear
9:35 AM 21.2 °F 7.3 °F 14.0 °F 74% 29.57 in 10.0 mi WSW 16.1 mph 21.9 mph N/A   Clear
9:55 AM 23.0 °F 10.6 °F 15.8 °F 74% 29.57 in 10.0 mi WSW 13.8 mph 21.9 mph N/A   Clear
10:15 AM 24.8 °F 12.9 °F 15.8 °F 69% 29.57 in 10.0 mi WSW 13.8 mph 21.9 mph N/A   Clear
10:35 AM 26.6 °F 15.2 °F 17.6 °F 69% 29.57 in 10.0 mi WSW 13.8 mph 25.3 mph N/A   Clear
10:55 AM 26.6 °F 14.7 °F 17.6 °F 69% 29.57 in 10.0 mi WSW 15.0 mph 24.2 mph N/A   Clear
11:15 AM 28.4 °F 16.6 °F 17.6 °F 64% 29.56 in 10.0 mi WSW 16.1 mph 21.9 mph N/A   Clear
11:35 AM 28.4 °F 17.5 °F 17.6 °F 64% 29.55 in 10.0 mi WSW 13.8 mph 20.7 mph N/A   Clear
11:55 AM 28.4 °F 18.0 °F 17.6 °F 64% 29.53 in 10.0 mi WSW 12.7 mph 19.6 mph N/A   Clear
12:15 PM 30.2 °F 21.9 °F 19.4 °F 64% 29.53 in 10.0 mi WSW 9.2 mph 17.3 mph N/A   Clear
12:35 PM 28.4 °F 20.4 °F 19.4 °F 69% 29.53 in 10.0 mi WSW 8.1 mph - N/A   Clear
12:55 PM 28.4 °F 19.1 °F 19.4 °F 69% 29.52 in 10.0 mi WSW 10.4 mph - N/A   Clear
1:15 PM 28.4 °F 17.5 °F 19.4 °F 69% 29.51 in 10.0 mi SW 13.8 mph 17.3 mph N/A   Clear
1:35 PM 30.2 °F 20.8 °F 19.4 °F 64% 29.50 in 10.0 mi SW 11.5 mph 17.3 mph N/A   Clear
1:55 PM 30.2 °F 20.8 °F 19.4 °F 64% 29.48 in 10.0 mi SW 11.5 mph 16.1 mph N/A   Clear
2:15 PM 30.2 °F 19.8 °F 19.4 °F 64% 29.48 in 10.0 mi WSW 13.8 mph - N/A   Clear
2:35 PM 30.2 °F 22.6 °F 19.4 °F 64% 29.47 in 10.0 mi SW 8.1 mph 16.1 mph N/A   Clear
2:55 PM 30.2 °F 19.8 °F 19.4 °F 64% 29.47 in 10.0 mi SW 13.8 mph 19.6 mph N/A   Clear
3:15 PM 30.2 °F 23.4 °F 19.4 °F 64% 29.47 in 10.0 mi SW 6.9 mph - N/A   Clear
3:35 PM 30.2 °F 21.9 °F 21.2 °F 69% 29.45 in 10.0 mi SW 9.2 mph - N/A   Clear
3:55 PM 30.2 °F 23.4 °F 19.4 °F 64% 29.46 in 10.0 mi SW 6.9 mph - N/A   Clear
4:15 PM 30.2 °F 21.3 °F 19.4 °F 64% 29.47 in 10.0 mi SW 10.4 mph - N/A   Clear
4:35 PM 30.2 °F 22.6 °F 19.4 °F 64% 29.48 in 10.0 mi WSW 8.1 mph - N/A   Clear
4:55 PM 30.2 °F 23.4 °F 21.2 °F 69% 29.49 in 10.0 mi SW 6.9 mph - N/A   Clear
5:15 PM 28.4 °F 21.2 °F 21.2 °F 74% 29.48 in 10.0 mi SW 6.9 mph - N/A   Clear
5:35 PM 28.4 °F 21.2 °F 21.2 °F 74% 29.49 in 10.0 mi SW 6.9 mph - N/A   Clear
5:55 PM 28.4 °F 21.2 °F 21.2 °F 74% 29.48 in 10.0 mi SW 6.9 mph - N/A   Clear
6:15 PM 28.4 °F 22.2 °F 21.2 °F 74% 29.48 in 10.0 mi SW 5.8 mph - N/A   Clear
6:55 PM 30.2 °F 26.7 °F 21.2 °F 69% 29.48 in 10.0 mi WSW 3.5 mph - N/A   Mostly Cloudy
7:15 PM 30.2 °F 26.7 °F 23.0 °F 75% 29.48 in 10.0 mi SW 3.5 mph - N/A   Overcast
7:35 PM 30.2 °F 24.3 °F 23.0 °F 75% 29.48 in 10.0 mi WSW 5.8 mph - N/A   Overcast
7:55 PM 30.2 °F 23.4 °F 23.0 °F 75% 29.48 in 10.0 mi WSW 6.9 mph - N/A   Overcast
8:15 PM 32.0 °F 25.6 °F 23.0 °F 69% 29.48 in 10.0 mi WSW 6.9 mph - N/A   Overcast
8:35 PM 32.0 °F 24.8 °F 23.0 °F 69% 29.48 in 10.0 mi WSW 8.1 mph - N/A   Overcast
8:55 PM 32.0 °F 27.5 °F 23.0 °F 69% 29.48 in 10.0 mi West 4.6 mph - N/A   Overcast
9:15 PM 32.0 °F 26.4 °F 23.0 °F 69% 29.48 in 10.0 mi WSW 5.8 mph - N/A   Overcast
9:35 PM 32.0 °F 26.4 °F 23.0 °F 69% 29.49 in 10.0 mi West 5.8 mph - N/A   Overcast
9:55 PM 32.0 °F 26.4 °F 23.0 °F 69% 29.50 in 10.0 mi West 5.8 mph - N/A   Overcast
10:15 PM 32.0 °F 27.5 °F 23.0 °F 69% 29.51 in 10.0 mi West 4.6 mph - N/A   Overcast
10:35 PM 32.0 °F 24.2 °F 23.0 °F 69% 29.51 in 10.0 mi WNW 9.2 mph - N/A   Overcast
10:55 PM 32.0 °F 24.8 °F 23.0 °F 69% 29.53 in 10.0 mi WNW 8.1 mph - N/A   Overcast
11:15 PM 32.0 °F 23.6 °F 23.0 °F 69% 29.55 in 10.0 mi NW 10.4 mph 16.1 mph N/A   Overcast
11:35 PM 30.2 °F 20.8 °F 23.0 °F 75% 29.56 in 10.0 mi NNW 11.5 mph - N/A   Overcast